ARIANE 3 DEB

基本信息
目录编号:
20229
目录名称:
ARIANE 3 DEB
国际标识:
1989-053C
轨道中心:
EARTH
物体状态:
在轨
发射日期:
1989-07-12 UTC
轨道信息
数据来源: 国际轨道数据
星历时间: 2026-07-13T18:50:32+0800
半长轴: 24069.526km
偏心率: 0.7166071
轨道倾角: 6.376°
近地点辐角: 83.809°
升交点赤经: 78.295°
平近点角: 346.111°
近地点: 442.995km
远地点: 34939.783km
周期: 619.385分钟
每日圈数: 2.324885
详细信息
发射场:
FRGUI
轨道高度:
LEO
数据来源:
AOE Integration Group
参考系:
TEME
时间系统:
UTC
历元类型:
SGP4
2D轨道图
3D轨道图
轨道高度分析图
轨道倾角分析图
轨道综合分析图
查看轨道综合分析图